Flag for United Kingdom Weather past 2 weeks in Cheltenham, England, United Kingdom

Now
61 °F

Passing clouds.


Feels Like: 61 °F
Forecast: 35 / 53 °F
Wind: 15 mph from Northeast

Location: Staverton Private

Current Time: Apr 18, 2015 at 4:34:50 PM

Latest Report: Apr 18, 2015 at 4:20 PM


Visibility: N/A

Pressure: 30.30 "Hg

Humidity: 45%

Dew point: 39 °F

Location of CheltenhamLocation

Historic Weather in Cheltenham — Graph

°F

Cheltenham temperature yesterday

Maximum temperature yesterday: 59 °F (at 1:20 PM)
Minimum temperature yesterday: 46 °F (at 7:50 AM)
Average temperature yesterday: 56 °F

Past Weeks' High & Low Weather Summary

 TemperatureHumidityPressure
High68 °F (Apr 10, 2:20 PM)100% (Apr 6, 6:50 AM)30.63 "Hg (Apr 6, 6:50 AM)
Low37 °F (Apr 6, 6:50 AM)36% (Apr 11, 4:50 PM)29.89 "Hg (Apr 10, 4:20 PM)
Average56 °F67%30.25 "Hg
* Reported Apr 3 3:20 PM — Apr 18 3:20 PM, Cheltenham, Weather by CustomWeather, © 2015

Note: Actual official high and low records may vary slightly from our data, if they occured in-between our weather recording intervals... More about our weather records

Advertising

Cheltenham weather history for previous 24 hours

 ConditionsComfort  
Time TempWeatherWind HumidityBarometerVisibility
3:20 PM
Sat, Apr 18
61 °FPassing clouds.16 mph48%30.33 "HgN/A
2:50 PM59 °FPassing clouds.16 mph48%30.33 "HgN/A
2:20 PM59 °FPassing clouds.16 mph45%30.33 "HgN/A
1:50 PM59 °FPassing clouds.14 mph45%30.36 "HgN/A
1:20 PM57 °FPassing clouds.15 mph48%30.36 "HgN/A
12:50 PM57 °FSunny.17 mph44%30.36 "Hg10 mi
12:20 PM55 °FSunny.14 mph47%30.36 "Hg10 mi
11:50 AM55 °FSunny.14 mph47%30.36 "Hg10 mi
11:20 AM54 °FSunny.17 mph51%30.36 "Hg10 mi
10:50 AM52 °FSunny.17 mph54%30.36 "Hg10 mi
10:20 AM52 °FSunny.13 mph50%30.36 "Hg10 mi
9:50 AM50 °FPassing clouds.10 mph62%30.39 "HgN/A
9:20 AM48 °FPassing clouds.9 mph71%30.39 "HgN/A
8:50 AM46 °FPassing clouds.6 mph71%30.39 "HgN/A
8:20 AM45 °FPassing clouds.7 mph76%30.36 "HgN/A
7:50 PM
Fri, Apr 17
52 °FSunny.12 mph67%30.21 "Hg10 mi
7:20 PM55 °FSunny.13 mph59%30.21 "Hg10 mi
6:50 PM55 °FPassing clouds.13 mph51%30.18 "HgN/A
6:20 PM55 °FPassing clouds.13 mph51%30.18 "HgN/A
5:50 PM57 °FPassing clouds.13 mph48%30.18 "HgN/A
5:20 PM57 °FPassing clouds.10 mph48%30.18 "HgN/A
4:50 PM59 °FPassing clouds.13 mph45%30.15 "HgN/A
4:20 PM59 °FPassing clouds.14 mph45%30.15 "HgN/A
Weather by CustomWeather, © 2015

See weather overviewHow to use our weather pages